Weather Roundup
Issued by NWS Chicago, IL

Home | Current Version | Previous Version | Text Only | Print | Product List | Glossary On
Versions: 1 2 3 4 5 6 7 8 9 10 11 12 13 14 15 16 17 18 19 20 21 22 23 24 25 26 27 28 29 30 31 32 33 34 35 36 37 38 39 40 41 42 43 44 45 46 47 48 49 50
000
NZUS59 KLOT 190312
HRRLOT

CHICAGO AREA WEATHER ROUNDUP
NATIONAL WEATHER SERVICE CHICAGO/ROMEOVILLE IL
900 PM CST WED JAN 18 2017

NOTE: "FAIR" INDICATES FEW OR NO CLOUDS BELOW 12,000 FEET WITH NO
SIGNIFICANT WEATHER AND/OR OBSTRUCTIONS TO VISIBILITY.

* THESE STATIONS ARE NOT UNDER NWS QUALITY CONTROL. THEY ALSO MAY NOT
  REPORT WEATHER SUCH AS PRECIPITATION OR FOG.

ILZ005-006-012>014-019>023-190400-
NORTHEAST ILLINOIS

CITY           SKY/WX    TMP DP  RH WIND       PRES   REMARKS
OHARE          CLOUDY    35  32  88 SW10      30.05F WCI  27
MIDWAY         CLOUDY    35  31  85 SW7       30.06F WCI  29
AURORA         CLOUDY    34  31  88 S3        30.06F FOG
LANSING*       CLOUDY    36  34  94 SW9       30.08F
JOLIET*        CLEAR     34  33  96 CALM      30.07F
WAUKEGAN       CLOUDY    34  32  92 SW9       30.03F WCI  27
DUPAGE AIRPORT CLOUDY    35  31  85 SW10      30.05F WCI  27
WHEELING       CLOUDY    35  31  85 SW9       30.06F WCI  28
KANKAKEE*      CLOUDY    34  32  93 CALM      30.10F FOG
MORRIS*        CLEAR     31  30  95 S5        30.06F FOG     WCI  27
LEWIS AIRPORT* CLOUDY    33  33 100 SW5       30.07F WCI  28
NORTHERLY ISL    N/A     36  31  82 SW9         N/A
$$

WIZ051-052-058>065-066-070>072-190400-
SOUTHEAST WISCONSIN

CITY           SKY/WX    TMP DP  RH WIND       PRES   REMARKS
MILWAUKEE      CLOUDY    35  31  85 SW13      30.01S WCI  26
KENOSHA*       CLOUDY    34  31  88 SW13      30.02F WCI  25
RACINE*        CLOUDY    34  30  85 SW10      30.04S WCI  26
WAUKESHA       CLOUDY    32  30  93 SW5G16    30.01S FOG     WCI  27
WEST BEND      CLOUDY    32  32 100 SW7       29.98S WCI  26
$$

INZ001>003-010>013-019-020-190400-
NORTHWEST INDIANA

CITY           SKY/WX    TMP DP  RH WIND       PRES   REMARKS
GARY*          CLOUDY    37  32  81 SW12G23   30.08F
MICHIGAN CITY* NOT AVBL
RENSSELAER*    NOT AVBL
VALPARAISO     CLOUDY    37  34  89 SW9       30.08F
$$

LMZ740>746-190400-
SOUTHERN LAKE MICHIGAN

STATION/POSITION TIME  SKY/WX   TEMP WIND        PRES    VSBY
                                AIR  DIR/SP/G
                 (UTC)          (F)  (DEG/KT/KT) (MB)    (MI)
HARRISON CRIB    0240            36  210/ 16/ 18   N/A
BURNHAM HARBOR   0300            36  230/  7/ 14   N/A
CALUMET HARBOR   0248            36  230/ 10/ 14 1017.8F
BURNS HARBOR     0240            37  220/ 11/ 16 1019.3F
MICHIGAN CITY    NOT AVBL
$$

ABBREVIATIONS USED IN REMARKS
   TC - TEMPERATURE IN CELSIUS
  WCI - WIND CHILL INDEX
   HX - HEAT INDEX
  VSB - VISIBILITY
$$




USA.gov is the U.S. government's official web portal to all federal, state and local government web resources and services.